Grizzly Air Cargo 5370


PAKN
King Salmon Airport
King Salmon, Alaska, US
PACD
Cold Bay Airport
Cold Bay, Alaska, US

Activity Log

Date Flight Route Aircraft Duration
No Flights Yet

Route Details

Aircraft Information
Primary: Saab 340AF
Backup: Not Available
Route Data
Distance: 302nm
Sched. Duration: 1h 50m
Avg. Duration: 0h 00m (-150m)
Times Flown: 0
Recm'd Route: AKN J115 CDB
Planned Altitude: 24,000ft
Origin Wx: PAKN 290354Z 35012G17KT 10SM BKN090 BKN110 19/01 A3004 RMK AO2 SLP174 T01890006
Dest. Wx: PACD 290353Z AUTO 36012KT 10SM OVC050 11/03 A3027 RMK AO2 SLP252 T01060028 TSNO
Notes:

Financial History
Total Freight: 0lbs
Average Load: 0lbs/flt
Fuel Used: 0lbs
Avg. Fuel Used: 0lbs/flt
Fuel Expense: $0
Avg. Fuel Expense: $0
Avg. Fuel Cost: $0/lbs
Total Gross Income: $0
Pilot Pay: $0
Total Expenses: $0
Total Revenue: $0
Average Revenue: $0